| time (UTC) | temp F | wind direction | speed knots | gust knots | rain 1hr in | rain 24hr in | rain mn in | humidity % | barometer mb |
| 20260507153804 | 54 | 257 | 0.9 | 7.8 | 0.00 | 0.00 | 0.00 | 67 | 1022.0 |
| 20260507153621 | 54 | 250 | 0.0 | 2.6 | 0.00 | 0.00 | 0.00 | 67 | 1027.2 |
| 20260507153304 | 53 | 265 | 0.0 | 7.8 | 0.00 | 0.00 | 0.00 | 71 | 1021.7 |
| 20260507153117 | 53 | 242 | 0.0 | 0.9 | 0.00 | 0.00 | 0.00 | 72 | 1027.1 |
| 20260507152804 | 52 | 277 | 0.0 | 7.8 | 0.00 | 0.00 | 0.00 | 75 | 1022.1 |
| 20260507152614 | 52 | 225 | 0.0 | 7.8 | 0.00 | 0.00 | 0.00 | 76 | 1027.8 |
| 20260507152306 | 51 | 233 | 0.0 | 2.6 | 0.00 | 0.00 | 0.00 | 79 | 1021.9 |
| 20260507152110 | 51 | 253 | 0.0 | 0.0 | 0.00 | 0.00 | 0.00 | 80 | 1027.6 |
| 20260507151606 | 50 | 226 | 0.0 | 2.6 | 0.00 | 0.00 | 0.00 | 83 | 1027.6 |
| 20260507151304 | 49 | 234 | 0.0 | 2.6 | 0.00 | 0.00 | 0.00 | 84 | 1022.2 |
| 20260507151103 | 49 | 229 | 0.0 | 2.6 | 0.00 | 0.00 | 0.00 | 85 | 1027.5 |
| 20260507150803 | 48 | 210 | 0.0 | 4.3 | 0.00 | 0.00 | 0.00 | 86 | 1022.2 |
| 20260507150600 | 48 | 221 | 0.0 | 0.9 | 0.00 | 0.00 | 0.00 | 86 | 1027.9 |
| 20260507150304 | 47 | 298 | 0.0 | 4.3 | 0.00 | 0.00 | 0.00 | 87 | 1022.3 |
| 20260507150057 | 47 | 320 | 0.0 | 2.6 | 0.00 | 0.00 | 0.00 | 87 | 1027.6 |
| 20260507145804 | 46 | 254 | 0.0 | 5.2 | 0.00 | 0.00 | 0.00 | 88 | 1022.2 |
| 20260507145551 | 46 | 206 | 0.0 | 0.0 | 0.00 | 0.00 | 0.00 | 88 | 1027.8 |
| 20260507145306 | 46 | 253 | 0.0 | 5.2 | 0.00 | 0.00 | 0.00 | 88 | 1022.0 |
| 20260507145050 | 46 | 254 | 0.0 | 2.6 | 0.00 | 0.00 | 0.00 | 88 | 1027.9 |
| 20260507144804 | 45 | 265 | 0.0 | 5.2 | 0.00 | 0.00 | 0.00 | 89 | 1022.3 |
| 20260507144546 | 45 | 251 | 0.0 | 2.6 | 0.00 | 0.00 | 0.00 | 89 | 1028.0 |
| 20260507144303 | 45 | 242 | 0.9 | 2.6 | 0.00 | 0.00 | 0.00 | 89 | 1022.5 |
| 20260507144044 | 45 | 223 | 0.0 | 0.0 | 0.00 | 0.00 | 0.00 | 89 | 1027.9 |
| 20260507143804 | 45 | 243 | 0.0 | 1.7 | 0.00 | 0.00 | 0.00 | 89 | 1022.3 |
| 20260507143541 | 45 | 261 | 0.0 | 0.0 | 0.00 | 0.00 | 0.00 | 89 | 1027.9 |
| 20260507143039 | 44 | 226 | 0.0 | 0.0 | 0.00 | 0.00 | 0.00 | 89 | 1028.1 |
| 20260507142804 | 43 | 224 | 0.0 | 6.1 | 0.00 | 0.00 | 0.00 | 89 | 1022.4 |
| 20260507142539 | 43 | 280 | 0.0 | 6.1 | 0.00 | 0.00 | 0.00 | 89 | 1028.1 |
| 20260507142306 | 44 | 260 | 1.7 | 6.1 | 0.00 | 0.00 | 0.00 | 89 | 1022.5 |
| 20260507142036 | 43 | 194 | 0.0 | 0.0 | 0.00 | 0.00 | 0.00 | 89 | 1028.2 |
| 20260507141803 | 43 | 255 | 0.9 | 5.2 | 0.00 | 0.00 | 0.00 | 89 | 1022.6 |
| 20260507141532 | 43 | 190 | 0.0 | 0.0 | 0.00 | 0.00 | 0.00 | 90 | 1028.2 |
| 20260507141303 | 44 | 252 | 0.0 | 5.2 | 0.00 | 0.00 | 0.00 | 90 | 1022.6 |
| 20260507141029 | 44 | 233 | 0.0 | 0.0 | 0.00 | 0.00 | 0.00 | 90 | 1028.2 |
| 20260507140803 | 43 | 235 | 0.0 | 7.0 | 0.00 | 0.00 | 0.00 | 90 | 1022.6 |
| 20260507140526 | 43 | 238 | 0.0 | 1.7 | 0.00 | 0.00 | 0.00 | 90 | 1028.2 |
| 20260507140303 | 43 | 239 | 0.0 | 7.0 | 0.00 | 0.00 | 0.00 | 90 | 1022.5 |
| 20260507140023 | 43 | 224 | 0.0 | 1.7 | 0.00 | 0.00 | 0.00 | 90 | 1028.2 |
| 20260507135804 | 43 | 218 | 0.0 | 0.0 | 0.00 | 0.00 | 0.00 | 90 | 1022.5 |
| 20260507135520 | 43 | 281 | 0.0 | 0.0 | 0.00 | 0.00 | 0.00 | 90 | 1028.3 |
| 20260507135306 | 43 | 243 | 0.0 | 0.0 | 0.00 | 0.00 | 0.00 | 90 | 1022.6 |
| 20260507135017 | 43 | 210 | 0.0 | 0.0 | 0.00 | 0.00 | 0.00 | 90 | 1028.3 |
| 20260507134803 | 42 | 230 | 0.0 | 0.0 | 0.00 | 0.00 | 0.00 | 90 | 1022.9 |
| 20260507134514 | 42 | 237 | 0.0 | 0.0 | 0.00 | 0.00 | 0.00 | 90 | 1028.3 |
| 20260507134304 | 42 | 250 | 0.0 | 0.0 | 0.00 | 0.00 | 0.00 | 90 | 1022.7 |
| 20260507134009 | 42 | 239 | 0.0 | 0.0 | 0.00 | 0.00 | 0.00 | 90 | 1028.4 |
| 20260507133804 | 42 | 243 | 0.0 | 1.7 | 0.00 | 0.00 | 0.00 | 90 | 1022.6 |
| 20260507133506 | 42 | 227 | 0.0 | 0.0 | 0.00 | 0.00 | 0.00 | 90 | 1028.2 |
| 20260507133304 | 42 | 230 | 0.0 | 1.7 | 0.00 | 0.00 | 0.00 | 90 | 1022.8 |
| 20260507133004 | 42 | 235 | 0.0 | 0.0 | 0.00 | 0.00 | 0.00 | 90 | 1028.3 |
| 20260507132804 | 42 | 262 | 0.0 | 6.1 | 0.00 | 0.00 | 0.00 | 90 | 1022.7 |
| 20260507132500 | 42 | 244 | 0.0 | 0.0 | 0.00 | 0.00 | 0.00 | 90 | 1028.2 |
| 20260507131956 | 42 | 259 | 0.0 | 0.0 | 0.00 | 0.00 | 0.00 | 90 | 1028.3 |
| 20260507131454 | 42 | 229 | 0.0 | 4.3 | 0.00 | 0.00 | 0.00 | 90 | 1028.2 |
| 20260507130950 | 42 | 277 | 0.0 | 0.0 | 0.00 | 0.00 | 0.00 | 89 | 1028.2 |
| 20260507130447 | 42 | 274 | 0.0 | 0.9 | 0.00 | 0.00 | 0.00 | 89 | 1028.2 |
| 20260507130303 | 42 | 284 | 0.9 | 4.3 | 0.00 | 0.00 | 0.00 | 89 | 1022.5 |
| 20260507125946 | 42 | 236 | 0.0 | 0.0 | 0.00 | 0.00 | 0.00 | 89 | 1028.4 |
| 20260507125804 | 41 | 317 | 0.0 | 4.3 | 0.00 | 0.00 | 0.00 | 89 | 1022.5 |
| 20260507125444 | 42 | 321 | 0.0 | 0.0 | 0.00 | 0.00 | 0.00 | 89 | 1028.2 |
| 20260507125306 | 41 | 321 | 0.0 | 4.3 | 0.00 | 0.00 | 0.00 | 89 | 1022.5 |
| 20260507124941 | 42 | 308 | 0.0 | 4.3 | 0.00 | 0.00 | 0.00 | 89 | 1027.9 |
| 20260507124804 | 42 | 317 | 0.0 | 1.7 | 0.00 | 0.00 | 0.00 | 89 | 1022.6 |
| 20260507124437 | 42 | 293 | 0.0 | 0.0 | 0.00 | 0.00 | 0.00 | 89 | 1028.1 |
| 20260507124304 | 41 | 290 | 0.0 | 5.2 | 0.00 | 0.00 | 0.00 | 89 | 1022.1 |
| 20260507123936 | 41 | 317 | 0.0 | 0.0 | 0.00 | 0.00 | 0.00 | 89 | 1028.1 |
| 20260507123433 | 41 | 258 | 0.0 | 4.3 | 0.00 | 0.00 | 0.00 | 89 | 1027.9 |
| 20260507122929 | 41 | 315 | 0.0 | 2.6 | 0.00 | 0.00 | 0.00 | 89 | 1028.0 |
| 20260507122804 | 41 | 319 | 0.0 | 0.9 | 0.00 | 0.00 | 0.00 | 89 | 1022.4 |
| 20260507122424 | 41 | 276 | 0.0 | 0.0 | 0.00 | 0.00 | 0.00 | 89 | 1027.9 |
| 20260507122307 | 41 | 247 | 0.0 | 0.9 | 0.00 | 0.00 | 0.00 | 89 | 1022.3 |
| 20260507121921 | 41 | 272 | 0.0 | 0.0 | 0.00 | 0.00 | 0.00 | 89 | 1028.1 |
| 20260507121804 | 41 | 241 | 0.0 | 0.0 | 0.00 | 0.00 | 0.00 | 89 | 1022.3 |
| 20260507121416 | 41 | 246 | 0.0 | 0.0 | 0.00 | 0.00 | 0.00 | 89 | 1027.8 |
| 20260507121304 | 41 | 289 | 0.0 | 0.0 | 0.00 | 0.00 | 0.00 | 89 | 1022.4 |
| 20260507120913 | 41 | 279 | 0.0 | 0.0 | 0.00 | 0.00 | 0.00 | 89 | 1028.2 |
| 20260507120409 | 41 | 279 | 0.0 | 0.0 | 0.00 | 0.00 | 0.00 | 89 | 1027.8 |
| 20260507120304 | 41 | 255 | 0.0 | 0.0 | 0.00 | 0.00 | 0.00 | 89 | 1022.4 |
| 20260507115906 | 41 | 248 | 0.0 | 0.0 | 0.00 | 0.00 | 0.00 | 89 | 1027.8 |
| 20260507115804 | 41 | 268 | 0.0 | 0.0 | 0.00 | 0.00 | 0.00 | 89 | 1022.2 |
| 20260507115402 | 41 | 248 | 0.0 | 0.0 | 0.00 | 0.00 | 0.00 | 89 | 1027.8 |
| 20260507115307 | 41 | 243 | 0.0 | 0.0 | 0.00 | 0.00 | 0.00 | 89 | 1022.3 |
| 20260507114857 | 41 | 244 | 0.0 | 0.0 | 0.00 | 0.00 | 0.00 | 89 | 1027.9 |
| 20260507114804 | 41 | 257 | 0.0 | 0.0 | 0.00 | 0.00 | 0.00 | 89 | 1022.3 |
| 20260507114354 | 41 | 278 | 0.0 | 0.0 | 0.00 | 0.00 | 0.00 | 89 | 1027.8 |
| 20260507114304 | 41 | 256 | 0.0 | 0.0 | 0.00 | 0.00 | 0.00 | 89 | 1022.2 |
| 20260507113852 | 41 | 256 | 0.0 | 0.0 | 0.00 | 0.00 | 0.00 | 89 | 1028.0 |
| 20260507113804 | 41 | 266 | 0.0 | 0.9 | 0.00 | 0.00 | 0.00 | 89 | 1022.2 |
| 20260507113349 | 41 | 257 | 0.0 | 0.0 | 0.00 | 0.00 | 0.00 | 89 | 1027.6 |
| 20260507113303 | 41 | 248 | 0.0 | 0.9 | 0.00 | 0.00 | 0.00 | 89 | 1022.2 |
| 20260507112846 | 41 | 259 | 0.0 | 0.9 | 0.00 | 0.00 | 0.00 | 88 | 1027.6 |
| 20260507112343 | 42 | 278 | 0.0 | 0.9 | 0.00 | 0.00 | 0.00 | 88 | 1027.5 |
| 20260507112306 | 41 | 283 | 0.0 | 0.0 | 0.00 | 0.00 | 0.00 | 88 | 1022.0 |
| 20260507111841 | 41 | 266 | 0.0 | 0.0 | 0.00 | 0.00 | 0.00 | 88 | 1027.9 |
| 20260507111803 | 41 | 263 | 0.0 | 0.0 | 0.00 | 0.00 | 0.00 | 88 | 1022.5 |
| 20260507111338 | 41 | 333 | 0.0 | 0.0 | 0.00 | 0.00 | 0.00 | 88 | 1027.6 |
| 20260507110833 | 42 | 293 | 0.0 | 0.0 | 0.00 | 0.00 | 0.00 | 88 | 1027.9 |
| 20260507110330 | 42 | 301 | 0.0 | 0.0 | 0.00 | 0.00 | 0.00 | 88 | 1027.6 |
| 20260507110304 | 41 | 313 | 0.0 | 0.0 | 0.00 | 0.00 | 0.00 | 88 | 1022.0 |
| 20260507105827 | 41 | 308 | 0.0 | 0.0 | 0.00 | 0.00 | 0.00 | 88 | 1027.6 |
| 20260507105804 | 41 | 316 | 0.0 | 0.0 | 0.00 | 0.00 | 0.00 | 88 | 1022.3 |
| 20260507105323 | 42 | 264 | 0.0 | 0.0 | 0.00 | 0.00 | 0.00 | 88 | 1027.9 |
| 20260507105306 | 41 | 248 | 0.0 | 0.0 | 0.00 | 0.00 | 0.00 | 88 | 1022.1 |
| 20260507104820 | 42 | 286 | 0.0 | 0.0 | 0.00 | 0.00 | 0.00 | 88 | 1027.6 |
| 20260507104804 | 41 | 302 | 0.0 | 0.0 | 0.00 | 0.00 | 0.00 | 88 | 1021.9 |
| 20260507104317 | 42 | 273 | 0.0 | 0.0 | 0.00 | 0.00 | 0.00 | 88 | 1027.8 |
| 20260507103813 | 42 | 288 | 0.0 | 0.0 | 0.00 | 0.00 | 0.00 | 88 | 1027.9 |
| 20260507103309 | 42 | 294 | 0.0 | 0.0 | 0.00 | 0.00 | 0.00 | 88 | 1027.9 |
| 20260507103304 | 42 | 294 | 0.0 | 0.0 | 0.00 | 0.00 | 0.00 | 88 | 1022.3 |
| 20260507102806 | 42 | 310 | 0.0 | 0.0 | 0.00 | 0.00 | 0.00 | 88 | 1027.8 |
| 20260507102804 | 41 | 312 | 0.0 | 0.0 | 0.00 | 0.00 | 0.00 | 88 | 1022.2 |
| 20260507102306 | 42 | 289 | 0.0 | 0.0 | 0.00 | 0.00 | 0.00 | 88 | 1027.8 |
| 20260507101759 | 42 | 278 | 0.0 | 0.0 | 0.00 | 0.00 | 0.00 | 88 | 1027.6 |
| 20260507101303 | 42 | 280 | 0.0 | 0.0 | 0.00 | 0.00 | 0.00 | 88 | 1022.2 |
| 20260507101254 | 42 | 284 | 0.0 | 0.0 | 0.00 | 0.00 | 0.00 | 88 | 1027.8 |
| 20260507100804 | 42 | 271 | 0.0 | 0.0 | 0.00 | 0.00 | 0.00 | 87 | 1022.2 |
| 20260507100751 | 42 | 269 | 0.0 | 0.0 | 0.00 | 0.00 | 0.00 | 87 | 1027.8 |
| 20260507100304 | 41 | 268 | 0.0 | 0.0 | 0.00 | 0.00 | 0.00 | 87 | 1022.4 |
| 20260507100249 | 42 | 268 | 0.0 | 0.0 | 0.00 | 0.00 | 0.00 | 87 | 1028.0 |
| 20260507095804 | 42 | 272 | 0.0 | 0.0 | 0.00 | 0.00 | 0.00 | 87 | 1022.4 |
| 20260507095747 | 42 | 272 | 0.0 | 0.0 | 0.00 | 0.00 | 0.00 | 87 | 1028.0 |
| 20260507095306 | 42 | 262 | 0.0 | 0.0 | 0.00 | 0.00 | 0.00 | 87 | 1022.3 |
| 20260507095243 | 42 | 262 | 0.0 | 0.0 | 0.00 | 0.00 | 0.00 | 87 | 1027.9 |
| 20260507094803 | 42 | 242 | 0.0 | 0.0 | 0.00 | 0.00 | 0.00 | 87 | 1022.4 |
| 20260507094740 | 42 | 241 | 0.0 | 0.0 | 0.00 | 0.00 | 0.00 | 87 | 1028.0 |
| 20260507094303 | 42 | 241 | 0.0 | 0.0 | 0.00 | 0.00 | 0.00 | 87 | 1022.4 |
| 20260507094237 | 42 | 241 | 0.0 | 0.0 | 0.00 | 0.00 | 0.00 | 87 | 1028.0 |
| 20260507093803 | 42 | 252 | 0.0 | 0.0 | 0.00 | 0.00 | 0.00 | 87 | 1022.3 |
| 20260507093734 | 42 | 252 | 0.0 | 0.0 | 0.00 | 0.00 | 0.00 | 87 | 1028.0 |
| 20260507093304 | 42 | 268 | 0.0 | 0.0 | 0.00 | 0.00 | 0.00 | 87 | 1022.5 |
| 20260507093233 | 42 | 266 | 0.0 | 0.0 | 0.00 | 0.00 | 0.00 | 87 | 1028.1 |
| 20260507092803 | 42 | 240 | 0.0 | 0.0 | 0.00 | 0.00 | 0.00 | 87 | 1022.4 |
| 20260507092730 | 42 | 240 | 0.0 | 0.0 | 0.00 | 0.00 | 0.00 | 87 | 1028.0 |
| 20260507092306 | 43 | 258 | 0.0 | 0.0 | 0.00 | 0.00 | 0.00 | 87 | 1022.4 |
| 20260507092226 | 43 | 260 | 0.0 | 0.0 | 0.00 | 0.00 | 0.00 | 87 | 1028.0 |
| 20260507091803 | 43 | 262 | 0.0 | 0.0 | 0.00 | 0.00 | 0.00 | 87 | 1022.4 |
| 20260507091722 | 43 | 261 | 0.0 | 0.0 | 0.00 | 0.00 | 0.00 | 87 | 1028.0 |
| 20260507091304 | 43 | 245 | 0.0 | 0.0 | 0.00 | 0.00 | 0.00 | 87 | 1022.3 |
| 20260507091219 | 43 | 245 | 0.0 | 0.0 | 0.00 | 0.00 | 0.00 | 87 | 1027.9 |
| 20260507090804 | 43 | 252 | 0.0 | 0.0 | 0.00 | 0.00 | 0.00 | 87 | 1022.4 |
| 20260507090719 | 43 | 250 | 0.0 | 0.0 | 0.00 | 0.00 | 0.00 | 87 | 1028.0 |
| 20260507090304 | 43 | 256 | 0.0 | 0.0 | 0.00 | 0.00 | 0.00 | 87 | 1022.1 |
| 20260507090216 | 43 | 256 | 0.0 | 0.0 | 0.00 | 0.00 | 0.00 | 87 | 1027.6 |
| 20260507085804 | 43 | 201 | 0.0 | 0.0 | 0.00 | 0.00 | 0.00 | 86 | 1022.2 |
| 20260507085713 | 43 | 197 | 0.0 | 0.0 | 0.00 | 0.00 | 0.00 | 86 | 1027.8 |
| 20260507085306 | 43 | 319 | 0.0 | 0.0 | 0.00 | 0.00 | 0.00 | 86 | 1022.1 |
| 20260507085210 | 43 | 319 | 0.0 | 0.0 | 0.00 | 0.00 | 0.00 | 86 | 1027.6 |
| 20260507084804 | 43 | 260 | 0.0 | 0.0 | 0.00 | 0.00 | 0.00 | 86 | 1022.2 |
| 20260507084707 | 43 | 256 | 0.0 | 0.0 | 0.00 | 0.00 | 0.00 | 86 | 1027.8 |
| 20260507084204 | 43 | 210 | 0.0 | 0.0 | 0.00 | 0.00 | 0.00 | 86 | 1027.5 |
| 20260507083701 | 43 | 202 | 0.0 | 0.0 | 0.00 | 0.00 | 0.00 | 86 | 1027.5 |
| 20260507083304 | 43 | 193 | 0.0 | 0.0 | 0.00 | 0.00 | 0.00 | 86 | 1021.9 |
| 20260507083157 | 43 | 193 | 0.0 | 0.0 | 0.00 | 0.00 | 0.00 | 86 | 1027.4 |
| 20260507082804 | 43 | 202 | 0.0 | 0.0 | 0.00 | 0.00 | 0.00 | 86 | 1021.9 |
| 20260507082654 | 43 | 203 | 0.0 | 0.0 | 0.00 | 0.00 | 0.00 | 86 | 1027.3 |
| 20260507082306 | 43 | 206 | 0.0 | 0.0 | 0.00 | 0.00 | 0.00 | 86 | 1021.8 |
| 20260507082150 | 43 | 189 | 0.0 | 0.0 | 0.00 | 0.00 | 0.00 | 85 | 1027.4 |
| 20260507081647 | 43 | 203 | 0.0 | 0.0 | 0.00 | 0.00 | 0.00 | 85 | 1027.3 |
| 20260507081304 | 43 | 173 | 0.0 | 0.0 | 0.00 | 0.00 | 0.00 | 85 | 1021.9 |
| 20260507081143 | 43 | 169 | 0.0 | 0.0 | 0.00 | 0.00 | 0.00 | 85 | 1027.5 |
| 20260507080804 | 43 | 199 | 0.0 | 0.0 | 0.00 | 0.00 | 0.00 | 85 | 1021.9 |
| 20260507080639 | 43 | 199 | 0.0 | 0.0 | 0.00 | 0.00 | 0.00 | 85 | 1027.4 |
| 20260507080304 | 43 | 184 | 0.0 | 0.0 | 0.00 | 0.00 | 0.00 | 85 | 1021.9 |
| 20260507080136 | 43 | 171 | 0.0 | 0.0 | 0.00 | 0.00 | 0.00 | 85 | 1027.6 |
| 20260507075804 | 43 | 165 | 0.0 | 0.0 | 0.00 | 0.00 | 0.00 | 84 | 1022.0 |
| 20260507075631 | 43 | 144 | 0.0 | 0.0 | 0.00 | 0.00 | 0.00 | 84 | 1027.6 |
| 20260507075307 | 43 | 186 | 0.0 | 0.0 | 0.00 | 0.00 | 0.00 | 84 | 1022.0 |
| 20260507075127 | 43 | 77 | 0.0 | 0.0 | 0.00 | 0.00 | 0.00 | 84 | 1027.6 |
| 20260507074804 | 43 | 161 | 0.0 | 0.0 | 0.00 | 0.00 | 0.00 | 84 | 1022.2 |
| 20260507074624 | 43 | 143 | 0.0 | 0.0 | 0.00 | 0.00 | 0.00 | 84 | 1027.8 |
| 20260507074304 | 44 | 179 | 0.0 | 0.0 | 0.00 | 0.00 | 0.00 | 84 | 1022.2 |
| 20260507074123 | 44 | 180 | 0.0 | 0.0 | 0.00 | 0.00 | 0.00 | 84 | 1027.8 |
| 20260507073804 | 43 | 178 | 0.0 | 0.0 | 0.00 | 0.00 | 0.00 | 84 | 1022.2 |
| 20260507073619 | 43 | 189 | 0.0 | 0.0 | 0.00 | 0.00 | 0.00 | 83 | 1027.6 |
| 20260507073115 | 44 | 117 | 0.0 | 0.0 | 0.00 | 0.00 | 0.00 | 83 | 1027.4 |
| 20260507072804 | 44 | 55 | 0.0 | 0.0 | 0.00 | 0.00 | 0.00 | 83 | 1022.0 |
| 20260507072613 | 44 | 190 | 0.0 | 0.0 | 0.00 | 0.00 | 0.00 | 83 | 1027.6 |
| 20260507072306 | 44 | 167 | 0.0 | 0.0 | 0.00 | 0.00 | 0.00 | 82 | 1022.5 |
| 20260507072109 | 44 | 140 | 0.0 | 0.0 | 0.00 | 0.00 | 0.00 | 82 | 1028.1 |
| 20260507071804 | 44 | 153 | 0.0 | 0.0 | 0.00 | 0.00 | 0.00 | 82 | 1022.9 |
| 20260507071607 | 44 | 126 | 0.0 | 0.0 | 0.00 | 0.00 | 0.00 | 82 | 1028.4 |
| 20260507071103 | 44 | 242 | 0.0 | 0.0 | 0.00 | 0.00 | 0.00 | 81 | 1028.5 |
| 20260507070804 | 44 | 108 | 0.0 | 0.9 | 0.00 | 0.00 | 0.00 | 80 | 1023.0 |
| 20260507070600 | 44 | 25 | 0.0 | 0.0 | 0.00 | 0.00 | 0.00 | 80 | 1028.7 |
| 20260507070303 | 44 | 179 | 0.0 | 0.9 | 0.00 | 0.00 | 0.00 | 80 | 1023.0 |
| 20260507070057 | 45 | 45 | 0.0 | 0.0 | 0.00 | 0.00 | 0.00 | 79 | 1028.7 |
| 20260507065804 | 45 | 105 | 0.0 | 0.0 | 0.00 | 0.00 | 0.00 | 79 | 1023.1 |
| 20260507065554 | 45 | 193 | 0.0 | 0.0 | 0.00 | 0.00 | 0.00 | 78 | 1028.9 |
| 20260507065051 | 45 | 205 | 0.0 | 0.0 | 0.00 | 0.00 | 0.00 | 78 | 1029.2 |
| 20260507064549 | 45 | 110 | 0.0 | 0.0 | 0.00 | 0.00 | 0.00 | 77 | 1029.2 |
| 20260507064047 | 45 | 205 | 0.0 | 0.0 | 0.00 | 0.00 | 0.00 | 76 | 1029.0 |
| 20260507063804 | 45 | 313 | 0.0 | 0.9 | 0.00 | 0.00 | 0.00 | 75 | 1023.3 |
| 20260507063544 | 45 | 347 | 0.0 | 0.0 | 0.00 | 0.00 | 0.00 | 75 | 1029.0 |
| 20260507063303 | 45 | 204 | 0.0 | 0.9 | 0.00 | 0.00 | 0.00 | 74 | 1023.2 |
| 20260507063041 | 45 | 13 | 0.0 | 0.0 | 0.00 | 0.00 | 0.00 | 74 | 1029.0 |
| 20260507062538 | 46 | 204 | 0.0 | 0.0 | 0.00 | 0.00 | 0.00 | 73 | 1029.3 |
| 20260507062306 | 46 | 227 | 0.0 | 0.0 | 0.00 | 0.00 | 0.00 | 72 | 1023.5 |
| 20260507062035 | 46 | 321 | 0.0 | 0.0 | 0.00 | 0.00 | 0.00 | 72 | 1029.2 |
| 20260507061533 | 45 | 104 | 0.0 | 0.0 | 0.00 | 0.00 | 0.00 | 72 | 1028.8 |
| 20260507061304 | 45 | 208 | 0.0 | 1.7 | 0.00 | 0.00 | 0.00 | 71 | 1022.9 |
| 20260507061031 | 45 | 102 | 0.0 | 0.0 | 0.00 | 0.00 | 0.00 | 71 | 1028.4 |
| 20260507060804 | 45 | 83 | 0.0 | 4.3 | 0.00 | 0.00 | 0.00 | 71 | 1022.9 |
| 20260507060529 | 45 | 107 | 0.0 | 1.7 | 0.00 | 0.00 | 0.00 | 71 | 1028.3 |
| 20260507060025 | 45 | 98 | 0.0 | 2.6 | 0.00 | 0.00 | 0.00 | 70 | 1028.4 |
| 20260507055804 | 45 | 100 | 0.0 | 2.6 | 0.00 | 0.00 | 0.00 | 70 | 1022.6 |
| 20260507055520 | 46 | 44 | 0.0 | 2.6 | 0.00 | 0.00 | 0.00 | 69 | 1028.3 |
| 20260507055016 | 46 | 138 | 0.0 | 0.0 | 0.00 | 0.00 | 0.00 | 69 | 1028.1 |
| 20260507054804 | 46 | 35 | 0.0 | 0.0 | 0.00 | 0.00 | 0.00 | 69 | 1022.5 |
| 20260507054512 | 46 | 36 | 0.0 | 0.0 | 0.00 | 0.00 | 0.00 | 69 | 1028.1 |
| 20260507054303 | 46 | 55 | 0.0 | 4.3 | 0.00 | 0.00 | 0.00 | 69 | 1022.4 |
| 20260507054009 | 46 | 97 | 0.0 | 0.0 | 0.00 | 0.00 | 0.00 | 69 | 1027.9 |
| 20260507053804 | 46 | 69 | 0.0 | 4.3 | 0.00 | 0.00 | 0.00 | 69 | 1022.3 |
| 20260507053508 | 46 | 128 | 0.0 | 0.0 | 0.00 | 0.00 | 0.00 | 69 | 1027.9 |
| 20260507053303 | 46 | 37 | 0.0 | 4.3 | 0.00 | 0.00 | 0.00 | 69 | 1022.4 |
| 20260507053006 | 46 | 305 | 0.0 | 4.3 | 0.00 | 0.00 | 0.00 | 69 | 1028.3 |
| 20260507052805 | 46 | 101 | 0.0 | 4.3 | 0.00 | 0.00 | 0.00 | 69 | 1022.4 |
| 20260507052503 | 46 | 139 | 0.0 | 2.6 | 0.00 | 0.00 | 0.00 | 68 | 1028.2 |
| 20260507052306 | 46 | 42 | 0.0 | 5.2 | 0.00 | 0.00 | 0.00 | 68 | 1022.5 |
| 20260507051959 | 46 | 76 | 0.0 | 4.3 | 0.00 | 0.00 | 0.00 | 68 | 1028.0 |
| 20260507051457 | 46 | 343 | 0.0 | 0.0 | 0.00 | 0.00 | 0.00 | 68 | 1027.9 |
| 20260507051304 | 46 | 297 | 0.0 | 7.0 | 0.00 | 0.00 | 0.00 | 67 | 1022.2 |
| 20260507050954 | 46 | 76 | 0.9 | 6.1 | 0.00 | 0.00 | 0.00 | 68 | 1027.9 |
| 20260507050804 | 46 | 344 | 0.9 | 7.0 | 0.00 | 0.00 | 0.00 | 67 | 1022.2 |
| 20260507050450 | 46 | 45 | 0.9 | 6.1 | 0.00 | 0.00 | 0.00 | 67 | 1027.9 |
| 20260507050304 | 46 | 96 | 1.7 | 7.0 | 0.00 | 0.00 | 0.00 | 67 | 1022.1 |
| 20260507045947 | 46 | 57 | 0.0 | 5.2 | 0.00 | 0.00 | 0.00 | 67 | 1027.5 |
| 20260507045804 | 46 | 166 | 0.9 | 7.8 | 0.00 | 0.00 | 0.00 | 66 | 1022.0 |
| 20260507045444 | 47 | 167 | 0.0 | 4.3 | 0.00 | 0.00 | 0.00 | 66 | 1027.9 |
| 20260507045306 | 47 | 54 | 0.9 | 7.8 | 0.00 | 0.00 | 0.00 | 66 | 1022.4 |
| 20260507044941 | 47 | 49 | 2.6 | 7.8 | 0.00 | 0.00 | 0.00 | 65 | 1028.0 |
| 20260507044804 | 47 | 15 | 0.9 | 7.8 | 0.00 | 0.00 | 0.00 | 65 | 1022.4 |
| 20260507044438 | 47 | 68 | 0.0 | 2.6 | 0.00 | 0.00 | 0.00 | 65 | 1028.1 |
| 20260507044303 | 47 | 81 | 0.0 | 7.8 | 0.00 | 0.00 | 0.00 | 65 | 1022.5 |
| 20260507043934 | 47 | 73 | 0.0 | 7.0 | 0.00 | 0.00 | 0.00 | 65 | 1028.2 |
| 20260507043803 | 47 | 62 | 0.0 | 7.8 | 0.00 | 0.00 | 0.00 | 65 | 1022.3 |
| 20260507043430 | 47 | 97 | 0.0 | 7.0 | 0.00 | 0.00 | 0.00 | 64 | 1028.2 |
| 20260507043304 | 47 | 78 | 0.0 | 7.0 | 0.00 | 0.00 | 0.00 | 64 | 1022.6 |
| 20260507042926 | 47 | 62 | 0.0 | 5.2 | 0.00 | 0.00 | 0.00 | 63 | 1028.7 |
| 20260507042424 | 48 | 146 | 0.0 | 5.2 | 0.00 | 0.00 | 0.00 | 63 | 1028.3 |
| 20260507042306 | 47 | 76 | 0.0 | 8.7 | 0.00 | 0.00 | 0.00 | 62 | 1022.6 |
| 20260507041919 | 48 | 347 | 0.9 | 5.2 | 0.00 | 0.00 | 0.00 | 62 | 1027.8 |
| 20260507041804 | 48 | 74 | 0.9 | 12.2 | 0.00 | 0.00 | 0.00 | 61 | 1022.2 |
| 20260507041416 | 48 | 46 | 6.1 | 8.7 | 0.00 | 0.00 | 0.00 | 60 | 1027.4 |
| 20260507041304 | 49 | 39 | 0.9 | 12.2 | 0.00 | 0.00 | 0.00 | 60 | 1022.2 |
| 20260507040914 | 49 | 145 | 0.0 | 7.8 | 0.00 | 0.00 | 0.00 | 59 | 1027.6 |
| 20260507040804 | 49 | 100 | 2.6 | 11.3 | 0.00 | 0.00 | 0.00 | 59 | 1022.0 |
| 20260507040409 | 49 | 72 | 0.9 | 4.3 | 0.00 | 0.00 | 0.00 | 60 | 1027.4 |
| 20260507040304 | 49 | 62 | 0.9 | 7.8 | 0.00 | 0.00 | 0.00 | 59 | 1021.8 |
| 20260507035905 | 49 | 311 | 0.0 | 5.2 | 0.00 | 0.00 | 0.00 | 59 | 1027.4 |
| 20260507035804 | 49 | 33 | 0.0 | 10.4 | 0.00 | 0.00 | 0.00 | 59 | 1021.9 |
| 20260507035401 | 49 | 32 | 1.7 | 7.0 | 0.00 | 0.00 | 0.00 | 59 | 1027.2 |
| 20260507035306 | 49 | 29 | 2.6 | 10.4 | 0.00 | 0.00 | 0.00 | 59 | 1021.8 |
| 20260507034859 | 49 | 50 | 5.2 | 9.6 | 0.00 | 0.00 | 0.00 | 59 | 1027.1 |
| 20260507034803 | 49 | 324 | 0.9 | 7.0 | 0.00 | 0.00 | 0.00 | 58 | 1022.0 |
| 20260507034355 | 50 | 58 | 0.0 | 2.6 | 0.00 | 0.00 | 0.00 | 58 | 1027.6 |
| 20260507034303 | 49 | 19 | 1.7 | 6.1 | 0.00 | 0.00 | 0.00 | 58 | 1022.1 |
| 20260507033853 | 50 | 37 | 1.7 | 2.6 | 0.00 | 0.00 | 0.00 | 58 | 1027.4 |
| 20260507033803 | 49 | 253 | 0.0 | 8.7 | 0.00 | 0.00 | 0.00 | 58 | 1021.9 |
| 20260507033351 | 50 | 158 | 0.0 | 4.3 | 0.00 | 0.00 | 0.00 | 58 | 1027.5 |
| 20260507033304 | 49 | 79 | 0.0 | 10.4 | 0.00 | 0.00 | 0.00 | 58 | 1021.8 |
| 20260507032848 | 50 | 176 | 1.7 | 4.3 | 0.00 | 0.00 | 0.00 | 58 | 1027.4 |
| 20260507032804 | 50 | 56 | 0.9 | 10.4 | 0.00 | 0.00 | 0.00 | 58 | 1021.9 |
| 20260507032345 | 50 | 350 | 4.3 | 9.6 | 0.00 | 0.00 | 0.00 | 58 | 1027.3 |
| 20260507032305 | 50 | 33 | 0.0 | 7.0 | 0.00 | 0.00 | 0.00 | 58 | 1021.7 |
| 20260507031841 | 50 | 52 | 2.6 | 7.0 | 0.00 | 0.00 | 0.00 | 57 | 1027.1 |
| 20260507031804 | 50 | 93 | 0.0 | 6.1 | 0.00 | 0.00 | 0.00 | 58 | 1021.6 |
| 20260507031338 | 50 | 93 | 0.0 | 4.3 | 0.00 | 0.00 | 0.00 | 57 | 1027.2 |
| 20260507031304 | 50 | 92 | 0.0 | 8.7 | 0.00 | 0.00 | 0.00 | 57 | 1021.4 |
| 20260507030834 | 51 | 322 | 0.0 | 0.9 | 0.00 | 0.00 | 0.00 | 57 | 1027.0 |
| 20260507030804 | 51 | 93 | 0.0 | 8.7 | 0.00 | 0.00 | 0.00 | 57 | 1021.3 |
| 20260507030332 | 51 | 92 | 2.6 | 8.7 | 0.00 | 0.00 | 0.00 | 55 | 1026.8 |
| 20260507030303 | 51 | 82 | 0.0 | 8.7 | 0.00 | 0.00 | 0.00 | 56 | 1021.1 |
| 20260507025828 | 51 | 336 | 0.0 | 4.3 | 0.00 | 0.00 | 0.00 | 55 | 1026.6 |
| 20260507025804 | 51 | 121 | 0.9 | 8.7 | 0.00 | 0.00 | 0.00 | 55 | 1021.5 |
| 20260507025326 | 52 | 56 | 2.6 | 7.8 | 0.00 | 0.00 | 0.00 | 55 | 1026.9 |
| 20260507024824 | 52 | 80 | 2.6 | 6.1 | 0.00 | 0.00 | 0.00 | 55 | 1026.6 |
| 20260507024804 | 52 | 157 | 0.0 | 13.0 | 0.00 | 0.00 | 0.00 | 55 | 1021.1 |
| 20260507024321 | 52 | 14 | 0.0 | 9.6 | 0.00 | 0.00 | 0.00 | 55 | 1026.6 |
| 20260507024304 | 52 | 31 | 0.9 | 13.0 | 0.00 | 0.00 | 0.00 | 55 | 1021.1 |
| 20260507023816 | 52 | 58 | 0.9 | 5.2 | 0.00 | 0.00 | 0.00 | 54 | 1026.3 |
| 20260507023804 | 52 | 59 | 1.7 | 10.4 | 0.00 | 0.00 | 0.00 | 54 | 1020.9 |
| 20260507023313 | 52 | 48 | 0.9 | 8.7 | 0.00 | 0.00 | 0.00 | 54 | 1026.3 |
| 20260507023304 | 52 | 52 | 1.7 | 11.3 | 0.00 | 0.00 | 0.00 | 54 | 1020.6 |
| 20260507022810 | 53 | 168 | 0.0 | 2.6 | 0.00 | 0.00 | 0.00 | 53 | 1026.0 |
| 20260507022804 | 53 | 8 | 0.0 | 20.0 | 0.00 | 0.00 | 0.00 | 53 | 1020.4 |
| 20260507022307 | 53 | 68 | 2.6 | 11.3 | 0.00 | 0.00 | 0.00 | 52 | 1025.9 |
| 20260507021804 | 54 | 0 | 0.9 | 20.0 | 0.00 | 0.00 | 0.00 | 52 | 1020.2 |
| 20260507021304 | 54 | 105 | 1.7 | 7.0 | 0.00 | 0.00 | 0.00 | 51 | 1020.4 |
| 20260507021259 | 54 | 50 | 1.7 | 8.7 | 0.00 | 0.00 | 0.00 | 51 | 1025.5 |
| 20260507020804 | 55 | 49 | 0.0 | 6.1 | 0.00 | 0.00 | 0.00 | 51 | 1020.2 |
| 20260507020757 | 55 | 254 | 0.0 | 7.0 | 0.00 | 0.00 | 0.00 | 51 | 1025.4 |
| 20260507020304 | 55 | 37 | 0.9 | 10.4 | 0.00 | 0.00 | 0.00 | 51 | 1019.9 |
| 20260507020253 | 55 | 141 | 0.0 | 5.2 | 0.00 | 0.00 | 0.00 | 51 | 1025.4 |
| 20260507015804 | 55 | 122 | 0.0 | 10.4 | 0.00 | 0.00 | 0.00 | 51 | 1019.8 |
| 20260507015751 | 55 | 121 | 0.0 | 2.6 | 0.00 | 0.00 | 0.00 | 51 | 1025.1 |
| 20260507015306 | 55 | 66 | 1.7 | 11.3 | 0.00 | 0.00 | 0.00 | 51 | 1019.6 |
| 20260507015248 | 55 | 66 | 6.1 | 9.6 | 0.00 | 0.00 | 0.00 | 51 | 1024.9 |
| 20260507014804 | 55 | 42 | 0.0 | 11.3 | 0.00 | 0.00 | 0.00 | 52 | 1019.2 |
| 20260507014745 | 55 | 21 | 0.9 | 1.7 | 0.00 | 0.00 | 0.00 | 52 | 1024.4 |
| 20260507014304 | 55 | 46 | 0.9 | 8.7 | 0.00 | 0.00 | 0.00 | 52 | 1019.1 |
| 20260507014241 | 55 | 46 | 0.0 | 2.6 | 0.00 | 0.00 | 0.00 | 52 | 1024.3 |
| 20260507013804 | 55 | 48 | 0.9 | 8.7 | 0.00 | 0.00 | 0.00 | 52 | 1019.0 |
| 20260507013738 | 55 | 64 | 0.0 | 4.3 | 0.00 | 0.00 | 0.00 | 52 | 1024.2 |
| 20260507013304 | 55 | 286 | 0.9 | 7.0 | 0.00 | 0.00 | 0.00 | 52 | 1018.9 |
| 20260507013235 | 55 | 271 | 0.0 | 2.6 | 0.00 | 0.00 | 0.00 | 52 | 1024.1 |
| 20260507012732 | 56 | 223 | 0.0 | 4.3 | 0.00 | 0.00 | 0.00 | 51 | 1023.8 |
| 20260507012306 | 56 | 97 | 0.0 | 6.1 | 0.00 | 0.00 | 0.00 | 51 | 1018.5 |
| 20260507012228 | 56 | 113 | 0.0 | 0.9 | 0.00 | 0.00 | 0.00 | 51 | 1023.6 |
| 20260507011803 | 56 | 89 | 1.7 | 6.1 | 0.00 | 0.00 | 0.00 | 51 | 1018.4 |
| 20260507011726 | 56 | 93 | 1.7 | 6.1 | 0.00 | 0.00 | 0.00 | 51 | 1023.5 |
| 20260507011304 | 56 | 62 | 0.0 | 6.1 | 0.00 | 0.00 | 0.00 | 51 | 1018.4 |
| 20260507011222 | 56 | 51 | 0.0 | 0.9 | 0.00 | 0.00 | 0.00 | 51 | 1023.5 |
| 20260507010721 | 56 | 72 | 1.7 | 6.1 | 0.00 | 0.00 | 0.00 | 50 | 1023.3 |
| 20260507010304 | 56 | 120 | 0.0 | 6.1 | 0.00 | 0.00 | 0.00 | 50 | 1018.0 |
| 20260507010218 | 56 | 57 | 0.0 | 4.3 | 0.00 | 0.00 | 0.00 | 50 | 1023.1 |
| 20260507005804 | 57 | 60 | 0.0 | 7.8 | 0.00 | 0.00 | 0.00 | 50 | 1017.7 |
| 20260507005715 | 57 | 72 | 0.0 | 2.6 | 0.00 | 0.00 | 0.00 | 50 | 1022.7 |
| 20260507005305 | 57 | 82 | 1.7 | 7.8 | 0.00 | 0.00 | 0.00 | 49 | 1017.5 |
| 20260507005211 | 57 | 79 | 1.7 | 6.1 | 0.00 | 0.00 | 0.00 | 49 | 1022.4 |
| 20260507004804 | 57 | 92 | 0.0 | 7.8 | 0.00 | 0.00 | 0.00 | 49 | 1017.5 |
| 20260507004708 | 57 | 98 | 0.0 | 7.8 | 0.00 | 0.00 | 0.00 | 49 | 1022.5 |
| 20260507004206 | 57 | 23 | 0.0 | 0.0 | 0.00 | 0.00 | 0.00 | 50 | 1022.5 |
| 20260507003804 | 57 | 102 | 0.9 | 11.3 | 0.00 | 0.00 | 0.00 | 49 | 1017.5 |
| 20260507003702 | 57 | 107 | 0.0 | 5.2 | 0.00 | 0.00 | 0.00 | 49 | 1022.5 |
| 20260507003157 | 58 | 63 | 0.0 | 0.0 | 0.00 | 0.00 | 0.00 | 48 | 1022.4 |
| 20260507002803 | 58 | 147 | 0.0 | 8.7 | 0.00 | 0.00 | 0.00 | 48 | 1017.4 |
| 20260507002653 | 58 | 160 | 0.0 | 2.6 | 0.00 | 0.00 | 0.00 | 48 | 1022.4 |
| 20260507002306 | 58 | 69 | 0.0 | 7.0 | 0.00 | 0.00 | 0.00 | 48 | 1017.4 |
| 20260507002149 | 58 | 74 | 0.0 | 4.3 | 0.00 | 0.00 | 0.00 | 48 | 1022.1 |
| 20260507001647 | 59 | 74 | 2.6 | 7.0 | 0.00 | 0.00 | 0.00 | 47 | 1022.4 |
| 20260507001304 | 58 | 126 | 0.0 | 4.3 | 0.00 | 0.00 | 0.00 | 48 | 1017.3 |
| 20260507001144 | 59 | 145 | 0.0 | 0.0 | 0.00 | 0.00 | 0.00 | 48 | 1022.1 |
| 20260507000803 | 58 | 173 | 0.0 | 4.3 | 0.00 | 0.00 | 0.00 | 47 | 1017.2 |
| 20260507000640 | 59 | 124 | 0.0 | 2.6 | 0.00 | 0.00 | 0.00 | 48 | 1022.2 |
| 20260507000306 | 59 | 128 | 0.0 | 13.0 | 0.00 | 0.00 | 0.00 | 47 | 1016.8 |
| 20260507000135 | 59 | 48 | 0.9 | 2.6 | 0.00 | 0.00 | 0.00 | 47 | 1021.7 |
| 20260506235804 | 59 | 64 | 0.0 | 13.0 | 0.00 | 0.00 | 0.00 | 47 | 1016.7 |
| 20260506235633 | 59 | 50 | 0.0 | 0.0 | 0.00 | 0.00 | 0.00 | 47 | 1021.6 |
| 20260506235133 | 60 | 232 | 4.3 | 13.0 | 0.00 | 0.00 | 0.00 | 46 | 1021.4 |
| 20260506234804 | 60 | 116 | 0.9 | 12.2 | 0.00 | 0.00 | 0.00 | 47 | 1016.8 |
| 20260506234631 | 60 | 118 | 2.6 | 9.6 | 0.00 | 0.00 | 0.00 | 46 | 1021.5 |
| 20260506234304 | 60 | 78 | 0.0 | 15.6 | 0.00 | 0.00 | 0.00 | 46 | 1016.7 |
| 20260506234128 | 60 | 127 | 0.0 | 7.0 | 0.00 | 0.00 | 0.00 | 46 | 1021.6 |
| 20260506233803 | 60 | 197 | 0.0 | 15.6 | 0.00 | 0.00 | 0.00 | 46 | 1016.7 |
| 20260506233625 | 60 | 190 | 0.0 | 0.0 | 0.00 | 0.00 | 0.00 | 47 | 1021.5 |
| 20260506233303 | 59 | 94 | 4.3 | 17.4 | 0.00 | 0.00 | 0.00 | 48 | 1016.8 |
| 20260506233122 | 60 | 66 | 8.7 | 15.6 | 0.00 | 0.00 | 0.00 | 47 | 1021.4 |
| 20260506232803 | 60 | 228 | 0.0 | 17.4 | 0.00 | 0.00 | 0.00 | 47 | 1016.8 |
| 20260506232618 | 60 | 55 | 0.0 | 0.0 | 0.00 | 0.00 | 0.00 | 47 | 1021.8 |
| 20260506232306 | 60 | 167 | 0.9 | 17.4 | 0.00 | 0.00 | 0.00 | 46 | 1016.8 |
| 20260506232113 | 60 | 303 | 0.9 | 5.2 | 0.00 | 0.00 | 0.00 | 47 | 1021.5 |
| 20260506231803 | 60 | 117 | 3.5 | 13.9 | 0.00 | 0.00 | 0.00 | 47 | 1016.6 |
| 20260506231611 | 60 | 108 | 7.0 | 13.0 | 0.00 | 0.00 | 0.00 | 46 | 1021.6 |
| 20260506231303 | 60 | 147 | 0.0 | 4.3 | 0.00 | 0.00 | 0.00 | 47 | 1016.5 |
| 20260506231109 | 60 | 98 | 0.0 | 4.3 | 0.00 | 0.00 | 0.00 | 47 | 1021.6 |
| 20260506230803 | 60 | 92 | 0.9 | 4.3 | 0.00 | 0.00 | 0.00 | 46 | 1016.8 |
| 20260506230605 | 60 | 272 | 0.0 | 0.0 | 0.00 | 0.00 | 0.00 | 46 | 1021.7 |
| 20260506230304 | 60 | 90 | 0.0 | 6.1 | 0.00 | 0.00 | 0.00 | 46 | 1016.7 |
| 20260506225804 | 60 | 192 | 0.0 | 7.8 | 0.00 | 0.00 | 0.00 | 46 | 1016.8 |
| 20260506225559 | 60 | 30 | 0.0 | 2.6 | 0.00 | 0.00 | 0.00 | 47 | 1021.7 |
| 20260506225305 | 60 | 72 | 0.9 | 7.8 | 0.00 | 0.00 | 0.00 | 47 | 1016.9 |
| 20260506225055 | 60 | 26 | 0.9 | 4.3 | 0.00 | 0.00 | 0.00 | 47 | 1021.5 |
| 20260506224553 | 60 | 115 | 0.0 | 0.9 | 0.00 | 0.00 | 0.00 | 47 | 1021.6 |
| 20260506224304 | 59 | 204 | 0.0 | 12.2 | 0.00 | 0.00 | 0.00 | 47 | 1016.7 |
| 20260506224049 | 59 | 121 | 0.0 | 0.0 | 0.00 | 0.00 | 0.00 | 48 | 1021.8 |
| 20260506223804 | 59 | 70 | 0.0 | 12.2 | 0.00 | 0.00 | 0.00 | 48 | 1016.8 |
| 20260506223545 | 59 | 27 | 0.0 | 0.0 | 0.00 | 0.00 | 0.00 | 48 | 1021.6 |
| 20260506223303 | 59 | 64 | 0.9 | 15.6 | 0.00 | 0.00 | 0.00 | 49 | 1016.9 |
| 20260506223042 | 59 | 85 | 0.0 | 0.9 | 0.00 | 0.00 | 0.00 | 49 | 1021.8 |
| 20260506222804 | 58 | 69 | 0.0 | 15.6 | 0.00 | 0.00 | 0.00 | 49 | 1016.8 |
| 20260506222538 | 58 | 198 | 0.0 | 15.6 | 0.00 | 0.00 | 0.00 | 49 | 1022.1 |
| 20260506222035 | 59 | 39 | 2.6 | 7.8 | 0.00 | 0.00 | 0.00 | 48 | 1021.9 |
| 20260506221804 | 59 | 26 | 0.0 | 10.4 | 0.00 | 0.00 | 0.00 | 47 | 1016.9 |
| 20260506221532 | 60 | 198 | 0.0 | 9.6 | 0.00 | 0.00 | 0.00 | 47 | 1021.8 |
| 20260506221304 | 60 | 103 | 0.9 | 8.7 | 0.00 | 0.00 | 0.00 | 47 | 1017.0 |
| 20260506221030 | 60 | 61 | 0.0 | 5.2 | 0.00 | 0.00 | 0.00 | 46 | 1021.8 |
| 20260506220803 | 60 | 57 | 0.0 | 21.7 | 0.00 | 0.00 | 0.00 | 48 | 1017.0 |
| 20260506220526 | 60 | 84 | 0.0 | 0.9 | 0.00 | 0.00 | 0.00 | 47 | 1021.9 |
| 20260506220304 | 59 | 188 | 0.0 | 21.7 | 0.00 | 0.00 | 0.00 | 49 | 1017.2 |
| 20260506220021 | 59 | 128 | 0.9 | 2.6 | 0.00 | 0.00 | 0.00 | 49 | 1022.1 |
| 20260506215804 | 59 | 178 | 0.9 | 21.7 | 0.00 | 0.00 | 0.00 | 49 | 1017.2 |
| 20260506215519 | 59 | 144 | 0.0 | 8.7 | 0.00 | 0.00 | 0.00 | 49 | 1022.1 |
| 20260506215014 | 60 | 73 | 0.0 | 7.0 | 0.00 | 0.00 | 0.00 | 48 | 1021.9 |
| 20260506214803 | 60 | 83 | 0.9 | 17.4 | 0.00 | 0.00 | 0.00 | 47 | 1017.0 |
| 20260506214512 | 60 | 62 | 2.6 | 7.8 | 0.00 | 0.00 | 0.00 | 47 | 1022.2 |
| 20260506214304 | 59 | 127 | 0.0 | 18.2 | 0.00 | 0.00 | 0.00 | 47 | 1017.3 |
| 20260506214009 | 59 | 18 | 0.0 | 6.1 | 0.00 | 0.00 | 0.00 | 48 | 1022.3 |
| 20260506213507 | 60 | 187 | 0.0 | 2.6 | 0.00 | 0.00 | 0.00 | 48 | 1022.2 |
| 20260506213304 | 60 | 15 | 0.9 | 18.2 | 0.00 | 0.00 | 0.00 | 47 | 1017.2 |
| 20260506213004 | 60 | 202 | 0.0 | 0.9 | 0.00 | 0.00 | 0.00 | 48 | 1022.2 |
| 20260506212803 | 60 | 112 | 0.0 | 17.4 | 0.00 | 0.00 | 0.00 | 48 | 1017.2 |
| 20260506212500 | 59 | 91 | 0.0 | 1.7 | 0.00 | 0.00 | 0.00 | 48 | 1022.2 |
| 20260506211954 | 61 | 36 | 0.9 | 2.6 | 0.00 | 0.00 | 0.00 | 46 | 1022.1 |
| 20260506211803 | 61 | 123 | 0.0 | 17.4 | 0.00 | 0.00 | 0.00 | 47 | 1017.3 |
| 20260506211451 | 60 | 70 | 0.0 | 0.0 | 0.00 | 0.00 | 0.00 | 49 | 1022.1 |
| 20260506211303 | 60 | 101 | 0.0 | 13.0 | 0.00 | 0.00 | 0.00 | 48 | 1017.3 |
| 20260506210948 | 60 | 125 | 0.0 | 1.7 | 0.00 | 0.00 | 0.00 | 47 | 1022.4 |
| 20260506210803 | 60 | 47 | 0.9 | 17.4 | 0.00 | 0.00 | 0.00 | 48 | 1017.3 |
| 20260506210444 | 60 | 66 | 0.0 | 11.3 | 0.00 | 0.00 | 0.00 | 48 | 1022.4 |
| 20260506210304 | 60 | 236 | 1.7 | 17.4 | 0.00 | 0.00 | 0.00 | 47 | 1017.2 |
| 20260506205942 | 60 | 157 | 0.0 | 0.0 | 0.00 | 0.00 | 0.00 | 47 | 1022.1 |
| 20260506205438 | 60 | 60 | 0.0 | 11.3 | 0.00 | 0.00 | 0.00 | 48 | 1021.9 |
| 20260506205306 | 59 | 20 | 1.7 | 11.3 | 0.00 | 0.00 | 0.00 | 48 | 1017.2 |
| 20260506204934 | 59 | 168 | 0.0 | 9.6 | 0.00 | 0.00 | 0.00 | 48 | 1022.3 |
| 20260506204804 | 59 | 116 | 0.0 | 5.2 | 0.00 | 0.00 | 0.00 | 48 | 1017.3 |
| 20260506204432 | 59 | 77 | 0.0 | 0.0 | 0.00 | 0.00 | 0.00 | 47 | 1022.2 |
| 20260506204304 | 59 | 151 | 0.0 | 13.0 | 0.00 | 0.00 | 0.00 | 48 | 1017.4 |
| 20260506203929 | 60 | 127 | 0.9 | 1.7 | 0.00 | 0.00 | 0.00 | 46 | 1022.5 |
| 20260506203804 | 60 | 272 | 0.9 | 13.0 | 0.00 | 0.00 | 0.00 | 46 | 1017.2 |
| 20260506203426 | 62 | 80 | 0.0 | 0.0 | 0.00 | 0.00 | 0.00 | 45 | 1022.3 |
| 20260506203304 | 61 | 171 | 0.0 | 15.6 | 0.00 | 0.00 | 0.00 | 46 | 1017.3 |
| 20260506202923 | 61 | 83 | 0.9 | 5.2 | 0.00 | 0.00 | 0.00 | 46 | 1022.4 |
| 20260506202804 | 60 | 157 | 0.0 | 15.6 | 0.00 | 0.00 | 0.00 | 47 | 1017.5 |
| 20260506202420 | 61 | 129 | 2.6 | 15.6 | 0.00 | 0.00 | 0.00 | 46 | 1022.3 |
| 20260506202306 | 61 | 136 | 0.0 | 11.3 | 0.00 | 0.00 | 0.00 | 46 | 1017.5 |
| 20260506201917 | 61 | 225 | 0.9 | 7.0 | 0.00 | 0.00 | 0.00 | 46 | 1022.4 |
| 20260506201803 | 60 | 28 | 0.0 | 13.9 | 0.00 | 0.00 | 0.00 | 46 | 1017.4 |
| 20260506201414 | 60 | 169 | 0.0 | 11.3 | 0.00 | 0.00 | 0.00 | 47 | 1022.2 |
| 20260506201304 | 60 | 239 | 0.0 | 17.4 | 0.00 | 0.00 | 0.00 | 46 | 1017.3 |
| 20260506200911 | 59 | 219 | 0.0 | 0.0 | 0.00 | 0.00 | 0.00 | 47 | 1022.3 |
| 20260506200407 | 60 | 154 | 0.0 | 17.4 | 0.00 | 0.00 | 0.00 | 48 | 1022.1 |
| 20260506200304 | 60 | 183 | 2.6 | 13.0 | 0.00 | 0.00 | 0.00 | 47 | 1017.4 |
| 20260506195903 | 61 | 97 | 0.0 | 6.1 | 0.00 | 0.00 | 0.00 | 48 | 1022.4 |
| 20260506195806 | 61 | 54 | 0.0 | 1.7 | 0.00 | 0.00 | 0.00 | 47 | 1017.1 |
| 20260506195401 | 60 | 246 | 0.0 | 0.9 | 0.00 | 0.00 | 0.00 | 48 | 1022.5 |
| 20260506195306 | 60 | 100 | 0.0 | 2.6 | 0.00 | 0.00 | 0.00 | 50 | 1017.3 |
| 20260506194857 | 60 | 116 | 0.0 | 1.7 | 0.00 | 0.00 | 0.00 | 49 | 1022.4 |
| 20260506194804 | 59 | 133 | 0.0 | 6.1 | 0.00 | 0.00 | 0.00 | 49 | 1017.3 |
| 20260506194354 | 59 | 56 | 0.0 | 0.9 | 0.00 | 0.00 | 0.00 | 49 | 1022.3 |
| 20260506194303 | 59 | 202 | 0.0 | 7.8 | 0.00 | 0.00 | 0.00 | 49 | 1017.4 |
| 20260506193852 | 59 | 92 | 0.0 | 6.1 | 0.00 | 0.00 | 0.00 | 50 | 1022.6 |
| 20260506193348 | 59 | 76 | 2.6 | 7.8 | 0.00 | 0.00 | 0.00 | 51 | 1022.7 |
| 20260506193315 | 58 | 165 | 0.0 | 2.6 | 0.00 | 0.00 | 0.00 | 51 | 1017.6 |
| 20260506192844 | 58 | 258 | 0.0 | 1.7 | 0.00 | 0.00 | 0.00 | 51 | 1022.6 |
| 20260506192803 | 58 | 82 | 0.0 | 8.7 | 0.00 | 0.00 | 0.00 | 51 | 1017.6 |
| 20260506192341 | 57 | 243 | 0.0 | 0.0 | 0.00 | 0.00 | 0.00 | 51 | 1022.7 |
| 20260506192305 | 57 | 127 | 0.0 | 8.7 | 0.00 | 0.00 | 0.00 | 52 | 1017.7 |
| 20260506191838 | 57 | 51 | 0.0 | 0.0 | 0.00 | 0.00 | 0.00 | 53 | 1022.8 |
| 20260506191823 | 57 | 93 | 0.0 | 8.7 | 0.00 | 0.00 | 0.00 | 52 | 1017.9 |
| 20260506191334 | 56 | 66 | 0.0 | 0.0 | 0.00 | 0.00 | 0.00 | 54 | 1022.6 |
| 20260506191304 | 56 | 229 | 0.0 | 8.7 | 0.00 | 0.00 | 0.00 | 53 | 1018.0 |
| 20260506190832 | 57 | 133 | 0.0 | 0.0 | 0.00 | 0.00 | 0.00 | 52 | 1022.7 |
| 20260506190804 | 57 | 106 | 0.0 | 2.6 | 0.00 | 0.00 | 0.00 | 52 | 1017.9 |
| 20260506190328 | 58 | 65 | 0.0 | 2.6 | 0.00 | 0.00 | 0.00 | 52 | 1022.8 |
| 20260506190304 | 57 | 109 | 0.0 | 11.3 | 0.00 | 0.00 | 0.00 | 53 | 1017.9 |
| 20260506185825 | 57 | 67 | 0.0 | 0.0 | 0.00 | 0.00 | 0.00 | 53 | 1023.1 |
| 20260506185804 | 57 | 90 | 0.0 | 12.2 | 0.00 | 0.00 | 0.00 | 52 | 1018.0 |
| 20260506185322 | 57 | 206 | 0.0 | 11.3 | 0.00 | 0.00 | 0.00 | 53 | 1022.8 |
| 20260506185306 | 57 | 183 | 0.0 | 12.2 | 0.00 | 0.00 | 0.00 | 53 | 1017.9 |
| 20260506184819 | 56 | 56 | 0.0 | 0.0 | 0.00 | 0.00 | 0.00 | 54 | 1023.2 |
| 20260506184804 | 55 | 126 | 0.0 | 7.0 | 0.00 | 0.00 | 0.00 | 55 | 1018.1 |
| 20260506184316 | 55 | 92 | 0.0 | 1.7 | 0.00 | 0.00 | 0.00 | 54 | 1023.2 |
| 20260506184304 | 56 | 92 | 0.0 | 7.0 | 0.00 | 0.00 | 0.00 | 54 | 1018.2 |
| 20260506183814 | 57 | 230 | 0.0 | 0.0 | 0.00 | 0.00 | 0.00 | 54 | 1023.3 |
| 20260506183803 | 57 | 57 | 0.0 | 2.6 | 0.00 | 0.00 | 0.00 | 54 | 1018.1 |
| 20260506183309 | 57 | 107 | 0.0 | 2.6 | 0.00 | 0.00 | 0.00 | 54 | 1023.1 |
| 20260506183303 | 56 | 219 | 0.0 | 5.2 | 0.00 | 0.00 | 0.00 | 55 | 1018.0 |
| 20260506182806 | 55 | 113 | 0.0 | 0.0 | 0.00 | 0.00 | 0.00 | 55 | 1023.2 |
| 20260506182803 | 55 | 220 | 0.0 | 6.1 | 0.00 | 0.00 | 0.00 | 54 | 1018.2 |
| 20260506182306 | 55 | 89 | 0.0 | 0.0 | 0.00 | 0.00 | 0.00 | 55 | 1023.5 |
| 20260506181803 | 54 | 159 | 0.0 | 1.7 | 0.00 | 0.00 | 0.00 | 55 | 1018.3 |
| 20260506181801 | 54 | 148 | 0.9 | 2.6 | 0.00 | 0.00 | 0.00 | 56 | 1023.3 |
| 20260506181304 | 55 | 211 | 0.0 | 5.2 | 0.00 | 0.00 | 0.00 | 55 | 1018.6 |
| 20260506181259 | 55 | 128 | 0.0 | 0.9 | 0.00 | 0.00 | 0.00 | 55 | 1023.7 |
| 20260506180803 | 55 | 135 | 0.0 | 5.2 | 0.00 | 0.00 | 0.00 | 56 | 1018.4 |
| 20260506180755 | 55 | 193 | 0.0 | 1.7 | 0.00 | 0.00 | 0.00 | 56 | 1023.6 |
| 20260506180303 | 56 | 155 | 0.9 | 5.2 | 0.00 | 0.00 | 0.00 | 56 | 1018.8 |
| 20260506180251 | 56 | 223 | 0.0 | 0.0 | 0.00 | 0.00 | 0.00 | 54 | 1023.6 |
| 20260506175804 | 55 | 128 | 0.0 | 10.4 | 0.00 | 0.00 | 0.00 | 55 | 1018.4 |
| 20260506175748 | 55 | 128 | 0.0 | 0.0 | 0.00 | 0.00 | 0.00 | 55 | 1023.5 |
| 20260506175306 | 54 | 171 | 0.0 | 10.4 | 0.00 | 0.00 | 0.00 | 56 | 1018.8 |
| 20260506175245 | 54 | 183 | 0.0 | 0.0 | 0.00 | 0.00 | 0.00 | 56 | 1024.0 |
| 20260506174804 | 55 | 162 | 0.9 | 10.4 | 0.00 | 0.00 | 0.00 | 56 | 1018.4 |
| 20260506174742 | 55 | 164 | 0.0 | 9.6 | 0.00 | 0.00 | 0.00 | 56 | 1023.5 |
| 20260506174304 | 53 | 183 | 0.0 | 4.3 | 0.00 | 0.00 | 0.00 | 58 | 1018.5 |
| 20260506174239 | 53 | 183 | 0.0 | 0.0 | 0.00 | 0.00 | 0.00 | 58 | 1023.6 |
| 20260506173804 | 53 | 75 | 0.0 | 4.3 | 0.00 | 0.00 | 0.00 | 58 | 1018.9 |
| 20260506173737 | 53 | 76 | 0.0 | 0.0 | 0.00 | 0.00 | 0.00 | 58 | 1024.1 |
| 20260506173304 | 54 | 111 | 0.9 | 4.3 | 0.00 | 0.00 | 0.00 | 58 | 1018.8 |
| 20260506173233 | 54 | 115 | 0.9 | 4.3 | 0.00 | 0.00 | 0.00 | 58 | 1023.8 |
| 20260506172730 | 53 | 5 | 0.0 | 0.0 | 0.00 | 0.00 | 0.00 | 58 | 1024.2 |
| 20260506172306 | 53 | 183 | 0.0 | 0.9 | 0.00 | 0.00 | 0.00 | 58 | 1018.8 |
| 20260506172227 | 53 | 184 | 0.0 | 0.9 | 0.00 | 0.00 | 0.00 | 58 | 1024.0 |
| 20260506171804 | 53 | 214 | 0.0 | 0.0 | 0.00 | 0.00 | 0.00 | 57 | 1018.8 |
| 20260506171725 | 53 | 216 | 0.0 | 0.0 | 0.00 | 0.00 | 0.00 | 57 | 1024.0 |
| 20260506171304 | 52 | 172 | 0.0 | 0.0 | 0.00 | 0.00 | 0.00 | 59 | 1018.8 |
| 20260506171222 | 52 | 172 | 0.0 | 0.0 | 0.00 | 0.00 | 0.00 | 59 | 1024.0 |
| 20260506170804 | 52 | 94 | 0.0 | 2.6 | 0.00 | 0.00 | 0.00 | 60 | 1018.5 |
| 20260506170719 | 52 | 82 | 0.0 | 0.0 | 0.00 | 0.00 | 0.00 | 60 | 1023.6 |
| 20260506170303 | 53 | 118 | 0.0 | 2.6 | 0.00 | 0.00 | 0.00 | 58 | 1018.7 |
| 20260506170216 | 53 | 117 | 0.0 | 0.0 | 0.00 | 0.00 | 0.00 | 58 | 1023.8 |
| 20260506165803 | 52 | 223 | 0.0 | 2.6 | 0.00 | 0.00 | 0.00 | 59 | 1018.4 |
| 20260506165714 | 52 | 223 | 0.0 | 2.6 | 0.00 | 0.00 | 0.00 | 59 | 1023.5 |
| 20260506165211 | 53 | 181 | 0.0 | 0.0 | 0.00 | 0.00 | 0.00 | 59 | 1023.7 |
| 20260506164708 | 51 | 171 | 0.0 | 0.0 | 0.00 | 0.00 | 0.00 | 60 | 1023.8 |
| 20260506164304 | 51 | 154 | 0.0 | 2.6 | 0.00 | 0.00 | 0.00 | 60 | 1018.7 |
| 20260506164205 | 51 | 153 | 0.0 | 0.0 | 0.00 | 0.00 | 0.00 | 60 | 1023.8 |
| 20260506163804 | 51 | 211 | 0.0 | 2.6 | 0.00 | 0.00 | 0.00 | 62 | 1018.7 |
| 20260506163701 | 51 | 211 | 0.0 | 2.6 | 0.00 | 0.00 | 0.00 | 62 | 1023.8 |
| 20260506163304 | 51 | 50 | 0.0 | 2.6 | 0.00 | 0.00 | 0.00 | 62 | 1018.8 |
| 20260506163156 | 51 | 49 | 0.0 | 0.0 | 0.00 | 0.00 | 0.00 | 62 | 1024.0 |
| 20260506162804 | 50 | 35 | 0.0 | 4.3 | 0.00 | 0.00 | 0.00 | 62 | 1018.6 |
| 20260506162653 | 50 | 27 | 0.0 | 0.0 | 0.00 | 0.00 | 0.00 | 62 | 1023.7 |
| 20260506162306 | 50 | 208 | 0.0 | 4.3 | 0.00 | 0.00 | 0.00 | 62 | 1018.7 |
| 20260506162150 | 50 | 208 | 0.0 | 0.0 | 0.00 | 0.00 | 0.00 | 62 | 1023.8 |
| 20260506161804 | 50 | 343 | 0.0 | 1.7 | 0.00 | 0.00 | 0.00 | 61 | 1018.8 |
| 20260506161647 | 51 | 169 | 0.0 | 1.7 | 0.00 | 0.00 | 0.00 | 61 | 1023.7 |
| 20260506161304 | 50 | 167 | 0.0 | 0.0 | 0.00 | 0.00 | 0.00 | 62 | 1018.3 |
| 20260506161144 | 50 | 214 | 0.0 | 0.0 | 0.00 | 0.00 | 0.00 | 62 | 1023.7 |
| 20260506160804 | 50 | 224 | 0.0 | 0.0 | 0.00 | 0.00 | 0.00 | 61 | 1018.4 |
| 20260506160642 | 50 | 193 | 0.0 | 0.0 | 0.00 | 0.00 | 0.00 | 62 | 1023.7 |
| 20260506160304 | 50 | 128 | 0.0 | 0.0 | 0.00 | 0.00 | 0.00 | 62 | 1018.2 |
| 20260506160139 | 50 | 89 | 0.0 | 0.0 | 0.00 | 0.00 | 0.00 | 62 | 1023.1 |
| 20260506155804 | 50 | 139 | 0.0 | 0.0 | 0.00 | 0.00 | 0.00 | 62 | 1018.3 |
| 20260506155637 | 50 | 174 | 0.0 | 0.0 | 0.00 | 0.00 | 0.00 | 63 | 1023.5 |
| 20260506155133 | 48 | 186 | 0.0 | 0.0 | 0.00 | 0.00 | 0.00 | 65 | 1023.2 |
| 20260506154803 | 49 | 175 | 0.0 | 2.6 | 0.00 | 0.00 | 0.00 | 63 | 1018.2 |
| 20260506154303 | 49 | 196 | 0.0 | 2.6 | 0.00 | 0.00 | 0.00 | 64 | 1018.1 |